• In Switzerland
  • List of Countries
  • For 7 days
  • Water Temperature
  • Satellite Maps
  • Weather Map
  • Weather Widgets
  • user-avatar
    Login

    Hourly Weather Serebryanka

    Today, 22 September, Saturday

    Time Temperature Precipitation Wind Pressure Humidity
    00:00 +20°C° 0 mm 3 mps 758 mmHg 50%
    01:00 +20°C° 0 mm 3 mps 758 mmHg 53%
    02:00 +19°C° 0 mm 3 mps 758 mmHg 55%
    03:00 +18°C° 0 mm 3 mps 758 mmHg 58%
    04:00 +18°C° 0 mm 2 mps 758 mmHg 60%
    05:00 +18°C° 0 mm 2 mps 758 mmHg 63%
    06:00 +17°C° 0 mm 2 mps 758 mmHg 66%
    07:00 +19°C° 0 mm 2 mps 758 mmHg 61%
    08:00 +20°C° 0 mm 3 mps 758 mmHg 56%
    09:00 +22°C° 0 mm 3 mps 758 mmHg 51%
    10:00 +25°C° 0 mm 3 mps 758 mmHg 46%
    11:00 +26°C° 0 mm 3 mps 757 mmHg 40%
    12:00 +28°C° 0 mm 3 mps 757 mmHg 35%
    13:00 +29°C° 0 mm 3 mps 757 mmHg 33%
    14:00 +29°C° 0 mm 3 mps 756 mmHg 31%
    15:00 +30°C° 0 mm 3 mps 756 mmHg 29%
    16:00 +29°C° 0 mm 3 mps 756 mmHg 31%
    17:00 +28°C° 0 mm 2 mps 755 mmHg 34%
    18:00 +27°C° 0 mm 2 mps 755 mmHg 36%
    19:00 +25°C° 0 mm 2 mps 755 mmHg 39%
    20:00 +24°C° 0 mm 3 mps 755 mmHg 42%
    21:00 +22°C° 0 mm 3 mps 755 mmHg 44%
    22:00 +21°C° 0 mm 3 mps 755 mmHg 46%
    23:00 +21°C° 0 mm 3 mps 755 mmHg 48%

    Tomorrow, 23 September, Sunday

    Time Temperature Precipitation Wind Pressure Humidity
    00:00 +20°C° 0 mm 3 mps 755 mmHg 49%
    01:00 +20°C° 0 mm 3 mps 755 mmHg 51%
    02:00 +19°C° 0 mm 3 mps 754 mmHg 53%
    03:00 +19°C° 0 mm 2 mps 754 mmHg 54%
    04:00 +19°C° 0 mm 2 mps 754 mmHg 56%
    05:00 +18°C° 0 mm 2 mps 753 mmHg 57%
    06:00 +18°C° 0 mm 2 mps 753 mmHg 59%
    07:00 +20°C° 0 mm 3 mps 753 mmHg 54%
    08:00 +21°C° 0 mm 4 mps 753 mmHg 50%
    09:00 +23°C° 0 mm 4 mps 752 mmHg 45%
    10:00 +26°C° 0 mm 5 mps 752 mmHg 41%
    11:00 +27°C° 0 mm 5 mps 752 mmHg 36%
    12:00 +29°C° 0 mm 6 mps 752 mmHg 31%
    13:00 +26°C° 0.1 mm 6 mps 752 mmHg 40%
    14:00 +23°C° 0.1 mm 7 mps 752 mmHg 49%
    15:00 +21°C° 0.1 mm 7 mps 752 mmHg 58%
    16:00 +19°C° 0.9 mm 6 mps 752 mmHg 66%
    17:00 +16°C° 0.9 mm 6 mps 752 mmHg 74%
    18:00 +14°C° 0.9 mm 5 mps 753 mmHg 81%
    19:00 +14°C° 0.3 mm 5 mps 753 mmHg 81%
    20:00 +13°C° 0.3 mm 4 mps 754 mmHg 80%
    21:00 +12°C° 0.3 mm 4 mps 754 mmHg 80%
    22:00 +12°C° 0 mm 4 mps 754 mmHg 80%
    23:00 +11°C° 0 mm 3 mps 755 mmHg 80%

    Day after tomorrow, 24 September, Monday

    Time Temperature Precipitation Wind Pressure Humidity
    00:00 +10°C° 0 mm 2 mps 755 mmHg 80%
    01:00 +10°C° 0 mm 2 mps 755 mmHg 80%
    02:00 +10°C° 0 mm 2 mps 755 mmHg 81%
    03:00 +10°C° 0 mm 2 mps 756 mmHg 81%
    04:00 +10°C° 0 mm 2 mps 756 mmHg 82%
    05:00 +10°C° 0 mm 2 mps 756 mmHg 82%
    06:00 +10°C° 0 mm 1 mps 756 mmHg 83%
    07:00 +12°C° 0 mm 2 mps 756 mmHg 77%
    08:00 +14°C° 0 mm 2 mps 756 mmHg 70%
    09:00 +15°C° 0 mm 2 mps 756 mmHg 63%
    10:00 +17°C° 0 mm 3 mps 755 mmHg 56%
    11:00 +18°C° 0 mm 4 mps 755 mmHg 49%
    12:00 +20°C° 0 mm 5 mps 755 mmHg 41%
    13:00 +21°C° 0 mm 5 mps 754 mmHg 39%
    14:00 +21°C° 0 mm 6 mps 754 mmHg 36%
    15:00 +22°C° 0 mm 6 mps 753 mmHg 33%
    16:00 +21°C° 0 mm 6 mps 752 mmHg 35%
    17:00 +21°C° 0 mm 6 mps 751 mmHg 37%
    18:00 +20°C° 0 mm 5 mps 751 mmHg 39%
    19:00 +19°C° 0 mm 6 mps 750 mmHg 39%
    20:00 +18°C° 0 mm 7 mps 750 mmHg 38%
    21:00 +17°C° 0 mm 7 mps 749 mmHg 38%
    22:00 +17°C° 0.2 mm 7 mps 749 mmHg 45%
    23:00 +16°C° 0.2 mm 7 mps 749 mmHg 51%

    25 September, Tuesday

    Time Temperature Precipitation Wind Pressure Humidity
    00:00 +16°C° 0.2 mm 7 mps 749 mmHg 58%
    01:00 +15°C° 0.3 mm 7 mps 749 mmHg 63%
    02:00 +14°C° 0.3 mm 7 mps 749 mmHg 68%
    03:00 +11°C° 0.3 mm 6 mps 749 mmHg 74%
    04:00 +11°C° 0 mm 6 mps 750 mmHg 74%
    05:00 +10°C° 0 mm 6 mps 750 mmHg 74%
    06:00 +9°C° 0 mm 5 mps 750 mmHg 73%
    07:00 +10°C° 0 mm 6 mps 750 mmHg 70%
    08:00 +11°C° 0 mm 6 mps 751 mmHg 67%
    09:00 +11°C° 0 mm 7 mps 751 mmHg 64%
    10:00 +12°C° 0 mm 7 mps 751 mmHg 59%
    11:00 +14°C° 0 mm 7 mps 752 mmHg 54%
    12:00 +15°C° 0 mm 8 mps 752 mmHg 49%
    13:00 +15°C° 0 mm 8 mps 752 mmHg 49%
    14:00 +14°C° 0 mm 7 mps 752 mmHg 49%
    15:00 +14°C° 0 mm 7 mps 752 mmHg 49%
    16:00 +14°C° 0 mm 7 mps 752 mmHg 51%
    17:00 +13°C° 0 mm 6 mps 753 mmHg 52%
    18:00 +13°C° 0 mm 5 mps 753 mmHg 53%
    19:00 +12°C° 0 mm 5 mps 754 mmHg 55%
    20:00 +11°C° 0 mm 4 mps 754 mmHg 57%
    21:00 +10°C° 0 mm 4 mps 755 mmHg 59%
    22:00 +10°C° 0 mm 4 mps 755 mmHg 59%
    23:00 +9°C° 0 mm 3 mps 756 mmHg 60%

    26 September, Wednesday

    Time Temperature Precipitation Wind Pressure Humidity
    00:00 +9°C° 0 mm 3 mps 756 mmHg 60%
    01:00 +8°C° 0 mm 3 mps 756 mmHg 61%
    02:00 +7°C° 0 mm 4 mps 757 mmHg 62%
    03:00 +6°C° 0 mm 4 mps 757 mmHg 63%
    04:00 +6°C° 0 mm 4 mps 757 mmHg 65%
    05:00 +5°C° 0 mm 4 mps 758 mmHg 67%
    06:00 +5°C° 0 mm 3 mps 758 mmHg 69%
    07:00 +6°C° 0 mm 4 mps 758 mmHg 64%
    08:00 +7°C° 0 mm 4 mps 758 mmHg 59%
    09:00 +8°C° 0 mm 5 mps 759 mmHg 54%
    10:00 +9°C° 0 mm 5 mps 759 mmHg 47%
    11:00 +12°C° 0 mm 5 mps 759 mmHg 40%
    12:00 +13°C° 0 mm 5 mps 759 mmHg 34%
    13:00 +13°C° 0 mm 5 mps 759 mmHg 33%
    14:00 +13°C° 0 mm 4 mps 758 mmHg 33%
    15:00 +14°C° 0 mm 4 mps 758 mmHg 32%
    16:00 +13°C° 0 mm 3 mps 758 mmHg 34%
    17:00 +13°C° 0 mm 3 mps 759 mmHg 37%
    18:00 +13°C° 0 mm 2 mps 759 mmHg 39%
    19:00 +12°C° 0 mm 2 mps 759 mmHg 41%
    20:00 +10°C° 0 mm 2 mps 760 mmHg 43%
    21:00 +10°C° 0 mm 1 mps 760 mmHg 45%
    22:00 +10°C° 0 mm 1 mps 760 mmHg 46%
    23:00 +10°C° 0 mm 1 mps 761 mmHg 47%

    27 September, Thursday

    Time Temperature Precipitation Wind Pressure Humidity
    00:00 +9°C° 0 mm 1 mps 761 mmHg 48%
    01:00 +9°C° 0 mm 1 mps 761 mmHg 49%
    02:00 +9°C° 0 mm 1 mps 761 mmHg 49%
    03:00 +8°C° 0 mm 1 mps 761 mmHg 50%
    04:00 +8°C° 0 mm 1 mps 762 mmHg 51%
    05:00 +8°C° 0 mm 1 mps 762 mmHg 52%
    06:00 +8°C° 0 mm 1 mps 762 mmHg 53%
    07:00 +9°C° 0 mm 1 mps 763 mmHg 48%
    08:00 +11°C° 0 mm 1 mps 763 mmHg 43%
    09:00 +13°C° 0 mm 1 mps 763 mmHg 39%
    10:00 +14°C° 0 mm 2 mps 763 mmHg 35%
    11:00 +15°C° 0 mm 2 mps 763 mmHg 32%
    12:00 +16°C° 0 mm 2 mps 763 mmHg 29%
    13:00 +17°C° 0 mm 2 mps 763 mmHg 28%
    14:00 +18°C° 0 mm 2 mps 762 mmHg 27%
    15:00 +19°C° 0 mm 1 mps 762 mmHg 26%
    16:00 +18°C° 0 mm 1 mps 762 mmHg 28%
    17:00 +16°C° 0 mm 1 mps 762 mmHg 30%
    18:00 +15°C° 0 mm 1 mps 761 mmHg 32%
    19:00 +14°C° 0 mm 1 mps 762 mmHg 33%
    20:00 +13°C° 0 mm 1 mps 762 mmHg 34%
    21:00 +12°C° 0 mm 2 mps 762 mmHg 35%
    22:00 +12°C° 0 mm 2 mps 762 mmHg 36%
    23:00 +10°C° 0 mm 2 mps 761 mmHg 37%
    Show more